Theta_e
280 279 279 279 279 279 278 279 279 279 279 279 279 280 282 284 286 288 289 290 292 295 296 295 295 296 295 293 293 293 295 299 301 301 302 302 305 313 317 316 316 316
280 280 279 279 278 278 277 277 278 278 278 278 279 280 281 283 285 287 288 290 292 294 296 296 295 295 295 293 292 293 294 298 301 302 301 302 303 310 316 317 316 316
280 280 279 279 278 277 277 277 277 277 277 277 278 279 280 282 284 286 288 289 291 293 295 297 296 294 295 294 292 293 294 296 300 302 301 302 303 306 313 317 316 316
280 280 279 279 278 278 277 276 276 276 276 276 277 278 280 281 283 285 287 289 291 293 295 296 296 295 295 295 293 293 293 295 299 301 301 302 303 304 310 316 316 316
280 279 279 279 279 278 278 277 275 275 275 276 277 278 279 280 282 284 286 288 289 292 294 295 296 296 295 295 294 293 293 294 297 300 301 302 302 303 307 314 316 315
280 280 279 278 278 278 277 277 276 275 274 275 276 278 278 279 280 283 285 286 287 289 291 294 295 296 296 296 294 293 293 294 295 298 301 301 302 303 306 313 316 316
281 280 279 278 278 277 277 277 276 275 274 275 275 277 278 278 279 281 283 285 286 287 289 292 294 295 296 296 294 293 294 294 294 297 300 301 302 303 305 311 316 316
281 280 279 278 277 277 276 276 276 275 274 274 274 276 277 278 279 281 282 284 285 287 288 290 293 294 295 295 295 294 294 294 293 295 299 301 302 303 304 309 315 316
280 279 279 278 277 276 276 275 275 275 274 273 274 275 277 278 279 280 281 283 285 286 286 288 292 294 294 294 294 294 294 294 293 294 297 300 302 302 303 307 314 316
279 278 278 278 277 276 275 275 274 274 274 273 273 274 275 277 279 279 280 282 284 285 286 287 290 293 294 293 293 293 293 294 293 293 296 300 301 302 303 307 313 315
280 278 277 277 276 276 275 274 273 274 274 273 273 274 275 277 279 279 279 281 282 284 285 286 288 290 292 293 293 293 293 293 294 293 295 299 301 302 303 306 312 315
279 277 276 275 275 275 274 273 272 272 273 273 273 274 275 276 277 278 279 279 281 283 284 286 288 289 290 291 292 292 292 293 293 293 294 298 301 302 303 305 311 315
277 276 275 275 274 274 273 272 271 271 272 272 272 273 274 274 275 277 279 279 280 282 283 284 287 288 289 290 291 291 291 292 293 293 294 297 301 302 303 304 310 315
278 277 275 274 273 273 272 270 270 271 270 270 271 272 272 274 276 277 279 280 280 282 283 283 286 288 289 290 291 291 291 291 292 292 293 296 300 302 303 303 307 313
277 275 274 274 273 273 272 270 270 270 270 271 271 271 272 274 276 277 279 280 281 282 282 283 285 287 289 290 291 291 291 292 292 292 293 295 299 302 303 302 305 311
278 277 276 275 273 271 270 270 270 270 270 271 271 271 272 273 275 276 277 278 280 281 282 282 284 286 288 290 290 290 290 291 292 292 292 294 297 301 303 303 304 309
277 275 274 272 272 271 269 269 269 270 270 270 271 271 272 273 274 275 275 277 279 281 282 282 283 285 287 289 290 290 290 290 291 292 292 293 296 300 303 303 304 308
276 275 274 273 274 274 272 270 270 270 270 270 271 271 272 273 274 275 276 278 279 280 281 282 283 284 286 288 289 289 290 290 290 291 291 292 295 299 302 303 304 308
276 274 272 271 271 272 272 272 271 271 271 271 271 271 272 273 274 275 276 277 278 279 280 281 282 284 285 287 288 289 289 290 289 290 291 292 294 298 302 303 304 307
276 273 272 273 273 271 270 270 271 272 272 272 272 272 273 274 275 275 276 277 277 278 280 281 281 282 284 285 286 287 288 289 289 290 291 291 293 297 301 303 303 306
277 275 275 276 275 274 272 271 271 272 272 272 273 273 273 274 275 275 276 278 278 279 280 281 281 282 283 284 286 287 288 289 289 290 290 291 293 296 300 303 303 305
279 277 274 273 273 274 273 273 273 273 273 273 273 274 275 274 274 275 276 277 279 279 280 280 281 281 282 284 285 287 289 290 290 290 291 291 292 295 299 302 303 304
279 276 274 274 273 272 272 272 272 274 275 274 274 275 276 276 276 276 276 277 278 279 280 280 281 281 282 284 285 286 288 290 291 290 291 291 292 295 299 302 304 304
278 276 275 275 274 273 272 272 272 273 275 276 276 276 277 277 277 277 278 278 279 280 280 281 281 281 282 284 285 286 287 289 290 290 290 290 292 295 298 302 304 304
278 276 276 275 274 273 272 271 272 274 276 276 277 277 278 278 278 277 278 279 280 281 281 281 281 282 283 285 286 287 288 288 289 289 290 290 292 295 299 302 304 305
278 276 275 275 273 272 272 272 273 274 276 277 278 279 279 279 279 279 279 280 281 281 281 282 282 283 285 287 288 288 289 289 290 290 290 291 292 295 299 302 304 305
Wind_Speed
50 47 46 45 45 45 44 44 43 44 44 42 43 44 42 42 43 40 36 32 33 38 41 40 36 34 35 34 31 31 32 31 34 37 41 46 44 51 67 63 59 60
51 49 48 48 48 47 44 44 43 43 43 43 45 45 40 39 40 40 37 32 30 34 38 39 36 34 35 34 32 32 32 31 32 33 36 43 43 42 62 67 60 60
53 52 51 50 49 48 47 45 44 44 44 44 45 43 40 37 37 38 37 32 29 30 34 39 38 35 35 34 31 32 33 31 31 31 33 41 42 38 52 69 64 62
55 54 53 53 52 51 50 48 47 46 45 44 43 40 39 37 35 37 36 32 28 28 31 37 38 35 35 34 31 32 33 31 31 30 32 40 44 41 44 65 68 63
56 55 54 55 55 53 51 49 48 46 45 44 41 38 37 37 37 36 36 32 29 27 28 33 36 36 36 35 33 33 33 32 31 29 31 37 44 44 42 57 70 63
57 57 55 56 56 55 52 50 48 46 44 43 40 36 35 37 38 36 36 33 29 26 26 28 33 35 36 36 34 34 34 33 32 29 30 34 42 44 41 50 70 66
60 59 57 57 57 55 52 50 47 44 42 41 40 38 36 37 38 37 35 34 31 28 25 26 29 32 34 35 34 34 34 33 32 30 29 32 39 44 41 43 64 68
61 60 58 58 57 56 52 50 48 45 42 40 40 38 37 37 37 36 35 34 33 31 28 25 26 28 32 34 33 34 35 34 33 31 30 31 35 41 42 40 57 67
60 59 57 57 57 55 53 51 49 46 41 39 39 38 37 36 35 35 35 35 35 33 29 25 23 24 29 33 33 33 34 34 33 32 30 30 33 38 39 39 54 67
60 58 56 57 58 57 55 52 49 46 42 39 38 38 38 36 34 34 34 34 35 35 30 25 22 23 27 30 31 33 34 35 34 34 32 30 32 36 36 38 50 65
61 60 56 55 57 57 55 52 49 46 42 39 38 37 37 36 34 33 33 33 35 35 32 25 21 23 27 28 29 31 33 34 35 35 33 31 31 35 35 37 48 63
64 61 54 53 56 57 55 51 49 46 43 39 37 35 33 33 32 32 33 33 35 36 33 28 23 22 26 27 28 30 32 33 33 34 34 31 31 35 36 38 47 63
63 60 56 56 58 57 54 51 48 46 44 39 34 32 32 33 34 35 34 35 36 37 36 32 27 24 25 27 29 31 34 35 33 32 33 31 30 35 37 37 44 62
65 62 58 58 59 58 55 50 48 48 47 42 38 36 37 38 38 37 36 36 36 37 37 35 31 29 27 26 28 31 34 36 34 30 31 31 30 34 37 37 39 56
65 60 56 56 58 58 54 49 46 46 47 45 42 40 39 40 39 37 36 36 35 36 37 36 34 33 30 28 28 30 33 36 34 30 29 30 30 33 38 36 36 49
64 62 60 60 61 59 57 54 49 46 45 45 43 41 39 38 37 35 34 35 35 35 36 37 37 37 34 32 32 32 34 36 35 31 30 29 28 32 36 34 33 44
65 63 59 59 59 56 54 55 54 49 45 44 43 41 39 37 35 35 35 36 36 36 36 36 38 40 37 36 35 34 34 36 37 34 32 31 28 29 34 32 30 40
64 62 59 61 64 60 52 50 51 50 47 45 43 40 38 37 35 34 34 34 34 35 36 36 37 40 40 39 39 37 35 35 38 37 35 33 30 28 33 32 28 37
64 62 61 64 67 65 59 54 51 49 46 45 43 41 38 37 35 33 32 31 31 33 35 35 36 37 39 41 41 40 38 37 37 38 37 36 32 29 34 33 27 34
66 61 59 60 59 57 58 58 55 50 46 43 42 40 38 36 34 32 31 30 31 33 34 34 36 36 38 41 41 40 40 38 38 38 38 38 34 31 34 35 29 32
65 64 64 64 61 56 53 52 51 49 46 44 41 39 38 37 35 32 31 30 30 32 33 35 36 36 36 40 41 37 35 36 38 38 38 38 36 33 34 36 29 31
65 66 66 64 62 59 54 51 49 45 42 41 40 38 36 36 35 33 32 31 30 30 32 35 36 35 34 37 39 35 31 32 36 38 37 37 37 34 34 36 31 30
65 66 66 63 61 58 55 52 49 45 40 37 38 38 35 33 33 32 31 31 31 29 30 32 33 32 31 33 36 35 32 32 34 36 36 36 37 35 34 37 34 29
64 63 64 64 62 58 55 53 49 44 40 36 35 36 34 31 31 31 30 29 28 28 29 30 32 31 28 29 32 33 34 35 36 36 36 36 36 35 34 37 36 31
63 63 63 62 61 58 56 53 49 44 39 34 32 33 32 31 30 29 29 27 25 25 27 28 31 30 26 25 28 29 30 33 33 34 35 35 35 34 34 38 38 33
62 61 61 60 59 57 55 53 48 43 38 33 29 30 30 31 29 28 27 26 24 24 25 26 28 27 23 23 25 26 27 28 30 32 34 34 34 34 34 38 40 35
Wind_Direction
329 325 321 317 313 309 307 306 305 304 304 303 303 303 298 289 286 288 290 297 299 287 274 272 280 283 285 291 290 287 286 274 269 271 264 267 262 227 210 209 205 201
330 327 323 319 315 311 308 306 306 303 302 301 301 302 300 292 285 285 289 294 298 289 276 271 278 283 282 286 289 284 286 279 267 268 265 264 269 242 214 210 208 203
331 329 326 322 318 313 310 306 303 302 300 301 301 301 300 295 288 284 286 291 295 290 280 273 273 280 281 281 286 283 282 280 268 266 265 258 265 260 225 211 208 205
330 330 328 324 320 316 312 307 303 301 301 301 302 301 300 299 293 285 283 287 292 290 284 275 269 275 281 279 282 283 280 279 272 265 266 257 255 265 241 212 206 206
329 329 328 326 323 318 315 311 306 303 302 302 301 300 300 301 296 286 282 285 289 292 288 278 269 269 277 280 279 282 280 279 278 266 263 258 250 260 255 218 205 205
329 328 327 327 324 320 316 313 310 305 303 303 302 300 297 296 293 286 282 285 287 290 291 284 274 267 272 279 278 280 281 279 283 273 261 260 250 254 260 224 205 203
330 329 327 327 325 321 316 314 313 308 303 303 301 298 294 291 290 286 283 284 283 282 285 286 281 271 270 277 276 278 282 280 284 280 263 260 252 250 259 232 204 201
330 329 328 327 325 322 318 315 314 310 305 302 299 296 295 292 289 287 283 281 279 276 279 284 285 277 270 274 276 276 281 280 282 282 267 257 252 250 259 242 207 199
330 329 329 328 327 323 319 317 315 313 307 302 300 297 295 293 290 289 285 280 277 274 277 281 283 279 271 271 274 275 279 279 279 282 270 256 251 248 257 248 213 201
330 330 329 330 328 324 320 317 315 314 309 303 299 296 294 290 287 287 285 281 277 273 274 278 280 281 273 269 272 274 278 278 277 280 272 258 250 246 253 250 217 200
333 332 329 328 328 325 321 318 315 314 311 305 300 296 293 290 287 286 285 282 277 272 270 270 274 280 275 268 272 275 278 278 275 278 274 261 250 244 251 251 221 201
334 334 330 327 328 327 323 319 315 313 312 309 305 301 299 295 290 285 282 281 276 270 267 263 260 270 273 270 273 276 278 278 276 276 274 265 251 242 248 252 225 204
333 331 329 328 328 327 323 318 315 316 316 313 306 300 295 291 286 282 277 276 273 268 265 261 254 255 261 264 268 272 275 277 276 275 273 266 252 240 245 254 229 206
336 334 332 330 327 327 325 319 316 316 315 310 303 298 294 289 286 284 278 273 270 267 264 261 254 250 251 253 261 269 271 272 273 273 273 267 253 239 241 254 239 210
335 332 330 328 326 326 326 320 314 313 312 308 304 301 298 294 289 286 283 276 271 266 264 260 252 247 246 245 252 261 263 266 268 269 275 271 256 242 238 250 249 217
335 334 334 334 332 329 326 322 319 317 313 310 307 302 299 297 292 287 285 281 274 268 264 261 252 245 243 241 245 254 258 264 267 267 275 275 261 246 237 244 253 224
338 336 333 331 330 329 325 321 322 321 315 310 309 306 301 298 292 286 281 277 273 268 264 262 254 245 242 240 242 249 255 262 266 267 275 276 265 250 236 238 253 230
336 334 332 331 333 334 331 326 325 324 319 315 313 310 305 301 295 289 282 277 273 269 265 264 257 248 243 241 241 245 250 257 263 266 273 276 267 251 235 235 252 233
338 336 334 332 331 332 332 331 329 325 321 317 314 310 306 302 298 292 287 281 275 269 265 264 261 252 244 241 242 245 247 252 260 264 270 273 267 252 235 232 250 236
339 335 333 332 332 331 330 329 328 325 321 318 316 313 308 304 299 293 288 282 275 269 266 265 263 256 248 242 241 244 247 251 258 262 266 268 264 253 237 231 245 237
339 337 338 340 339 336 332 329 327 324 320 319 318 315 311 307 303 296 289 282 275 268 264 264 264 259 251 244 240 242 247 252 256 258 261 264 261 254 239 229 238 238
342 341 341 341 340 337 335 332 330 325 321 321 320 315 311 308 302 296 290 285 280 271 261 260 263 261 254 246 240 238 243 250 254 254 256 260 258 253 241 228 230 237
345 343 341 342 341 339 336 334 331 327 324 323 320 316 313 308 303 297 290 284 281 272 261 260 265 263 256 247 238 234 236 241 247 251 253 257 255 251 243 227 225 234
346 344 344 343 342 340 337 335 333 328 325 323 320 317 314 310 306 300 292 285 279 268 260 262 266 264 258 249 238 234 235 238 245 250 253 255 254 250 242 227 222 230
348 347 346 344 342 340 338 335 334 332 330 327 322 318 316 312 308 302 294 287 277 267 260 260 263 262 256 245 235 233 235 237 242 247 248 249 249 246 240 226 221 228
350 348 347 346 343 339 337 337 337 335 333 331 328 324 320 315 310 302 294 286 276 269 264 261 262 261 252 240 233 232 233 234 237 240 242 244 245 244 238 226 221 225